HB9CYX-13 Weather Reports


Display with metric or nautical units.
time (UTC)temp
F
wind
direction
speed
MPH
gust
MPH
rain 1hr
in
rain 24hr
in
rain mn
in
humidity
%
barometer
mb
20260507170739 61 270 2.0 18.0 0.00 0.07 0.07 51 1015.5
20260507165521 61 315 5.0 18.0 0.00 0.07 0.07 49 1015.5
20260507164304 63 292 6.0 18.0 0.00 0.07 0.07 46 1015.3
20260507163047 64 180 9.0 18.0 0.00 0.07 0.07 43 1015.2
20260507161830 65 225 2.0 18.0 0.00 0.07 0.07 43 1015.0
20260507160613 69 315 4.0 18.0 0.00 0.07 0.07 39 1014.7
20260507155356 66 180 3.0 18.0 0.00 0.07 0.07 44 1015.0
20260507154138 67 180 5.0 18.0 0.00 0.07 0.07 41 1014.7
20260507152921 66 225 5.0 18.0 0.00 0.07 0.07 44 1014.9
20260507151704 69 270 3.0 18.0 0.00 0.07 0.07 41 1014.6
20260507150447 68 225 2.0 18.0 0.00 0.07 0.07 42 1014.8
20260507145230 69 225 4.0 18.0 0.00 0.07 0.07 42 1014.7
20260507144013 68 315 10.0 18.0 0.00 0.07 0.07 42 1014.7
20260507142756 68 225 3.0 18.0 0.00 0.07 0.07 43 1014.8
20260507141539 68 45 4.0 14.0 0.00 0.07 0.07 44 1014.8
20260507140321 64 270 5.0 14.0 0.00 0.07 0.07 47 1015.3
20260507135104 65 270 3.0 14.0 0.00 0.07 0.07 48 1015.4
20260507133847 65 315 3.0 14.0 0.00 0.07 0.07 49 1015.5
20260507132630 67 270 7.0 14.0 0.00 0.07 0.07 47 1015.3
20260507131413 67 225 0.0 14.0 0.00 0.07 0.07 52 1015.3
20260507130156 60 270 4.0 14.0 0.00 0.07 0.07 63 1016.1
20260507124938 59 270 6.0 14.0 0.00 0.07 0.07 62 1016.4
20260507123721 61 292 5.0 14.0 0.00 0.08 0.07 53 1016.3
20260507122504 67 225 8.0 14.0 0.00 0.12 0.07 46 1015.4
20260507121247 67 292 7.0 14.0 0.00 0.14 0.07 48 1015.4
20260507120030 62 135 6.0 14.0 0.00 0.15 0.07 55 1015.9
20260507114812 66 225 3.0 14.0 0.00 0.17 0.07 55 1015.5
20260507113555 64 225 1.0 14.0 0.00 0.18 0.07 53 1015.9
20260507112338 62 225 13.0 14.0 0.00 0.19 0.07 53 1016.0
20260507111121 62 45 2.0 14.0 0.00 0.20 0.07 59 1016.2
20260507105903 61 225 0.0 14.0 0.00 0.20 0.07 61 1016.3
20260507104646 60 90 0.0 14.0 0.00 0.20 0.07 60 1016.4
20260507103429 61 270 4.0 14.0 0.00 0.20 0.07 57 1016.3
20260507102212 62 270 4.0 14.0 0.00 0.20 0.07 59 1016.2
20260507100955 61 270 2.0 12.0 0.00 0.20 0.07 56 1016.4
20260507095737 64 180 8.0 12.0 0.00 0.20 0.07 51 1016.1
20260507094520 62 315 4.0 11.0 0.00 0.20 0.07 56 1016.3
20260507093303 61 225 0.0 11.0 0.00 0.20 0.07 60 1016.5
20260507092046 64 90 1.0 11.0 0.00 0.22 0.07 59 1016.1
20260507090829 55 270 1.0 11.0 0.00 0.20 0.07 74 1017.1
20260507085611 56 225 3.0 10.0 0.00 0.22 0.07 88 1017.0
20260507084354 56 225 3.0 10.0 0.00 0.22 0.07 88 1017.0
20260507083137 55 270 1.0 10.0 0.00 0.22 0.07 88 1017.1
20260507081920 52 270 4.0 8.0 0.00 0.22 0.07 88 1017.4
20260507080703 52 315 0.0 8.0 0.00 0.22 0.07 88 1017.3
20260507075446 51 180 0.0 8.0 0.01 0.22 0.07 88 1017.5
20260507074228 50 292 0.0 8.0 0.01 0.22 0.07 89 1017.7
20260507073012 50 315 1.0 8.0 0.01 0.22 0.07 90 1017.5
20260507071754 50 315 2.0 8.0 0.01 0.22 0.07 91 1017.5
20260507070537 50 315 0.0 8.0 0.01 0.22 0.07 93 1017.5
20260507065320 49 270 1.0 8.0 0.00 0.20 0.06 94 1017.5
20260507064102 49 135 0.0 8.0 0.00 0.20 0.06 95 1017.4
20260507062845 48 270 0.0 8.0 0.00 0.20 0.06 95 1017.3
20260507061628 48 135 0.0 8.0 0.00 0.20 0.06 97 1017.3
20260507060411 48 292 0.0 8.0 0.00 0.20 0.06 97 1017.2
20260507055153 48 180 0.0 8.0 0.00 0.20 0.06 97 1017.1
20260507053936 48 135 0.0 8.0 0.00 0.20 0.06 97 1017.0
20260507052719 47 180 0.0 8.0 0.00 0.20 0.06 98 1016.9
20260507051502 47 315 0.0 8.0 0.00 0.20 0.06 98 1016.8
20260507050245 47 315 0.0 8.0 0.00 0.20 0.06 98 1016.7
20260507045027 47 315 0.0 8.0 0.00 0.20 0.06 99 1016.6
20260507043810 46 292 0.0 8.0 0.00 0.20 0.06 99 1016.5
20260507042553 46 270 0.0 8.0 0.00 0.20 0.06 99 1016.5
20260507041336 46 315 0.0 8.0 0.00 0.20 0.06 99 1016.4
20260507034901 46 315 0.0 8.0 0.01 0.20 0.06 99 1016.3
20260507033644 46 315 0.0 8.0 0.02 0.20 0.06 99 1016.2
20260507032427 46 315 0.0 8.0 0.02 0.20 0.06 99 1016.1
20260507031210 46 225 0.0 8.0 0.03 0.20 0.06 99 1016.1
20260507025953 46 315 0.0 8.0 0.03 0.19 0.05 98 1016.1
20260507024736 46 270 0.0 8.0 0.04 0.19 0.05 98 1016.1
20260507022301 46 225 0.0 8.0 0.02 0.17 0.03 97 1015.9
20260507021044 46 135 0.0 8.0 0.02 0.17 0.03 97 1015.8
20260507015827 46 270 0.0 8.0 0.01 0.16 0.02 96 1015.8
20260507014609 46 270 3.0 8.0 0.01 0.15 0.01 96 1015.7
20260507013352 46 315 1.0 8.0 0.01 0.15 0.01 95 1015.6
20260507012135 46 315 2.0 8.0 0.01 0.15 0.01 95 1015.6
20260507010918 46 270 3.0 7.0 0.01 0.15 0.01 94 1015.5
20260507005701 45 292 2.0 7.0 0.00 0.14 0.00 95 1015.5
20260507004443 45 270 2.0 7.0 0.00 0.14 0.00 95 1015.5
20260507003226 45 270 1.0 7.0 0.00 0.14 0.00 96 1015.5
20260507002009 45 292 2.0 7.0 0.00 0.14 0.00 96 1015.5
20260507000752 45 315 2.0 7.0 0.00 0.14 0.00 96 1015.5
20260506235535 44 315 1.0 7.0 0.00 0.14 0.00 96 1015.7
20260506234318 44 315 0.0 7.0 0.00 0.14 0.00 96 1015.7
20260506233100 44 270 2.0 7.0 0.00 0.14 0.00 96 1015.6
20260506231843 44 270 1.0 7.0 0.00 0.14 0.00 95 1015.6
20260506230626 44 315 0.0 7.0 0.00 0.14 0.00 95 1015.5
20260506225409 45 315 2.0 7.0 0.00 0.14 0.00 95 1015.4
20260506224152 45 270 3.0 4.0 0.00 0.14 0.00 96 1015.4
20260506222935 45 180 0.0 3.0 0.00 0.14 0.00 95 1015.3
20260506221717 45 270 0.0 3.0 0.00 0.14 0.00 94 1015.3
20260506220500 46 315 1.0 3.0 0.00 0.14 0.00 95 1015.2
20260506215243 45 180 0.0 36.0 0.00 0.14 0.14 94 1015.3
20260506214026 45 315 0.0 36.0 0.00 0.14 0.14 93 1015.3
20260506212808 45 225 0.0 36.0 0.00 0.14 0.14 91 1015.2
20260506211551 46 225 0.0 36.0 0.00 0.14 0.14 91 1015.0
20260506210334 46 292 0.0 36.0 0.00 0.14 0.14 92 1014.9
20260506205117 46 270 0.0 36.0 0.00 0.14 0.14 93 1014.9
20260506203900 46 315 0.0 36.0 0.00 0.14 0.14 94 1014.9
20260506202642 46 315 0.0 36.0 0.00 0.14 0.14 93 1014.8
20260506201425 46 315 0.0 36.0 0.00 0.14 0.14 90 1014.6
20260506200208 47 315 1.0 36.0 0.00 0.14 0.14 91 1014.2
20260506194951 47 315 0.0 36.0 0.00 0.14 0.14 88 1014.0
20260506193734 48 135 0.0 36.0 0.00 0.14 0.14 87 1013.8
20260506192516 48 315 0.0 36.0 0.00 0.14 0.14 85 1013.6
20260506191259 49 270 0.0 36.0 0.00 0.14 0.14 83 1013.5
20260506190042 49 90 0.0 36.0 0.00 0.14 0.14 79 1013.2
20260506184825 50 22 0.0 36.0 0.00 0.14 0.14 77 1013.1
20260506183608 51 315 1.0 36.0 0.00 0.14 0.14 76 1012.9
20260506182350 51 315 4.0 36.0 0.00 0.14 0.14 75 1012.7
20260506181133 51 270 0.0 36.0 0.00 0.14 0.14 75 1012.5
20260506175916 52 315 1.0 36.0 0.00 0.14 0.14 74 1012.4
20260506174659 52 225 0.0 36.0 0.00 0.14 0.14 73 1012.3
20260506173442 52 270 5.0 36.0 0.00 0.14 0.14 75 1012.3
20260506172224 52 225 6.0 36.0 0.00 0.14 0.14 74 1012.1